Location: Larrial
(48.2758°N, 4.5331°W)
Time: 03:57:42
(UTC+00:00)

Cosmos 2181 Rocket - Pass Details

Date: 09 April 2020
Orbit: 952 x 1014 km, 82.9° (Epoch: 06 June)

Event Time Altitude Azimuth Distance (km) Brightness Sun altitude
Exits shadow 21:12:47 - 194° (SSW) 3,481 6.6 -20.4°
Reaches altitude 10° 21:14:49 10° 196° (SSW) 2,723 6.1 -20.6°
Maximum altitude 21:21:02 71° 281° (W) 1,022 4.2 -21.4°
Drops below altitude 10° 21:27:13 10° 6° (N) 2,705 6.8 -22.2°
Sets 21:29:44 0° 8° (N) 3,650 7.5 -22.5°
